CAPE
10 11 11 7 5 0 0 1 1 1 1 1 1 1 0 1 0 0 1 2 2 0 3 1 1 0 0 0 0 0 601 500 0 0 0 0 0 0 0 0 0 216 267 331 399 403 337
7 3 4 1 3 0 0 0 0 0 0 1 0 0 0 1 1 2 3 2 2 2 2 1 0 0 0 0 0 0 0 0 0 0 0 0 0 0 0 0 22 141 268 234 65 42 302
12 13 11 12 4 0 0 3 1 0 0 0 0 1 1 1 3 2 3 2 2 2 1 0 0 0 0 0 0 0 0 0 0 0 0 0 0 0 0 35 271 128 232 94 31 103 3
15 14 13 4 7 0 0 1 1 1 1 1 1 1 1 2 2 3 2 2 3 2 0 0 0 0 0 0 0 0 0 0 0 0 0 0 0 0 0 0 0 66 0 32 124 87 30
12 11 3 5 6 1 1 0 1 2 1 2 2 2 2 1 2 2 1 2 0 0 0 0 0 0 0 0 0 0 0 0 0 0 0 0 0 0 0 0 7 0 10 0 172 204 234
11 1 5 0 1 3 2 1 0 3 2 0 1 1 1 1 1 0 0 0 0 0 0 0 0 0 0 0 0 0 0 0 0 0 0 0 0 0 0 0 17 1 0 20 5 85 212
2 4 6 1 1 1 1 0 0 2 2 1 0 0 1 1 0 0 0 0 0 0 0 0 0 0 0 0 0 0 0 0 0 0 0 0 0 0 0 0 0 0 0 0 0 156 127
5 5 7 2 1 3 2 1 0 0 0 1 0 0 1 0 0 0 0 0 0 0 0 0 0 0 0 0 0 0 0 0 0 0 0 0 0 0 3 10 4 27 51 29 1 143 93
6 5 3 1 4 2 2 1 0 0 0 0 0 1 1 1 0 0 0 0 0 0 0 0 0 0 0 0 0 0 0 0 0 0 0 0 0 0 35 21 12 21 9 0 13 1 88
1 1 1 2 3 2 1 0 0 0 0 0 0 1 0 2 0 0 0 0 0 0 0 0 0 0 0 0 0 0 0 0 0 0 0 0 0 21 43 27 2 27 0 0 0 2 4
0 0 0 1 2 1 1 0 0 0 0 0 1 0 0 0 0 0 0 0 0 0 0 0 0 0 0 0 0 0 0 0 0 0 0 0 0 14 55 34 22 49 0 0 0 0 0
0 0 0 2 2 3 0 0 0 0 0 0 0 0 0 0 0 0 0 0 0 0 0 0 0 0 0 0 0 0 0 0 0 0 0 0 0 0 39 17 27 13 15 0 0 0 0
0 0 0 1 3 0 0 0 0 0 0 0 0 0 0 0 0 0 0 0 0 0 0 0 0 0 0 0 0 0 0 0 0 0 0 0 0 2 22 10 1 0 0 0 0 0 2
0 0 1 2 0 0 0 0 0 0 0 0 0 0 0 0 0 0 0 0 0 0 0 0 0 0 0 0 0 0 0 0 0 0 0 0 0 0 0 6 1 0 0 0 3 0 0
0 0 0 2 0 0 0 0 0 0 0 0 0 0 0 0 0 0 0 0 0 0 0 0 0 0 0 0 0 0 0 0 0 0 0 0 0 0 0 0 0 0 0 0 0 0 0
0 0 4 0 0 0 0 0 0 0 0 0 0 0 0 0 0 0 0 0 0 0 0 0 0 0 0 0 0 0 0 0 0 0 0 0 0 0 0 0 0 0 0 0 0 0 265
1 0 5 2 0 0 1 1 0 0 0 0 0 0 0 0 0 0 0 0 0 0 0 0 0 0 0 0 0 0 0 0 0 0 0 0 0 0 0 0 0 0 0 0 0 0 162
4 0 9 3 1 1 1 1 0 0 0 0 0 0 0 0 0 0 0 0 0 0 0 0 0 0 0 0 0 0 0 0 0 0 0 0 0 0 0 0 0 0 0 0 0 0 4
4 10 9 2 2 3 3 0 0 0 0 0 0 0 0 0 0 0 0 0 0 0 0 0 0 0 0 0 0 0 0 0 0 0 0 0 0 0 0 0 0 0 0 0 0 0 0
11 13 10 4 6 3 1 0 0 0 0 0 0 0 0 0 0 0 0 0 0 0 0 0 0 0 0 0 0 0 0 0 0 0 121 0 0 0 0 0 0 0 0 0 0 0 0
16 9 6 6 3 4 0 0 0 0 0 0 0 0 0 0 0 0 0 0 0 0 0 0 0 0 0 0 0 0 0 0 0 0 0 0 0 0 0 0 0 0 0 0 0 0 1
11 10 15 1 3 0 0 0 0 0 0 0 0 0 0 0 0 0 0 0 0 0 0 0 0 0 0 0 0 0 0 0 0 0 0 0 0 0 0 0 0 0 0 4 4 0 0
6 2 2 2 0 0 0 0 1 0 0 0 0 0 0 0 0 0 0 0 0 0 0 0 0 0 0 0 0 0 0 0 0 0 0 0 0 0 0 0 0 0 56 44 38 25 0
6 3 2 3 1 1 3 5 1 0 0 0 0 0 0 0 0 0 0 0 0 0 0 0 0 0 0 0 0 0 0 0 0 0 0 0 0 0 0 0 0 0 3 0 54 54 31
5 5 6 5 4 1 5 7 7 1 0 0 0 0 0 0 0 0 0 0 0 0 0 0 0 0 0 0 0 0 1 1 6 6 0 0 0 0 0 0 0 6 8 22 0 72 37
7 5 2 2 6 5 5 4 6 3 0 0 0 0 0 0 0 0 0 0 0 0 0 0 0 0 0 0 2 0 31 119 237 18 0 0 0 21 70 10 33 51 0 0 0 85 3
5 8 5 2 1 4 4 6 5 1 0 0 0 0 0 0 0 0 0 0 0 0 0 0 0 0 0 4 47 77 86 199 92 68 28 2 76 50 23 132 166 25 71 0 0 30 0
0 2 2 7 2 1 2 8 4 0 0 0 0 0 0 0 0 0 0 0 0 0 0 0 0 0 20 105 40 17 9 34 179 31 85 16 215 219 46 115 167 251 62 125 26 4 0
0 0 0 2 7 8 6 5 0 0 0 0 0 0 0 0 0 0 0 0 0 0 0 0 0 0 13 2 0 4 26 0 7 42 68 48 49 237 178 297 153 353 176 147 132 69 45
CIN
-4 -3 -2 -1 0 0 0 0 0 0 0 0 0 0 0 0 -1 0 0 0 0 0 0 0 0 0 0 0 0 0 -762 -758 0 0 0 0 0 0 0 0 0 -123 -158 -149 -160 -153 -163
-1 -2 -1 0 0 0 0 0 0 0 0 -2 0 0 0 0 0 0 0 0 0 0 0 0 0 0 0 0 0 0 0 0 0 0 0 0 0 0 0 0 -105 -154 -172 -202 -239 -252 -180
-12 -10 -8 -9 0 0 0 0 0 0 0 0 0 0 0 0 0 0 0 0 0 0 0 0 0 0 0 0 0 0 0 0 0 0 0 0 0 0 0 -121 -137 -195 -163 -191 -322 -235 -89
-16 -14 -13 -8 0 0 0 0 0 0 0 0 0 0 0 0 0 0 0 0 0 0 0 0 0 0 0 0 0 0 0 0 0 0 0 0 0 0 0 0 0 -95 0 -115 -201 -276 -334
-12 -12 -11 0 0 0 0 0 0 0 0 0 0 0 0 0 0 0 0 0 0 0 0 0 0 0 0 0 0 0 0 0 0 0 0 0 0 0 0 0 -98 0 -82 0 -139 -299 -282
-11 -4 0 0 0 -1 -1 0 0 0 0 0 0 0 0 0 0 0 0 0 0 0 0 0 0 0 0 0 0 0 0 0 0 0 0 0 0 0 0 -41 -84 -14 0 -116 -49 -155 -232
-1 0 0 0 0 0 0 0 0 0 0 0 0 0 0 0 0 0 0 0 0 0 0 0 0 0 0 0 0 0 0 0 0 0 0 0 0 -1 0 0 0 0 0 0 0 -165 -188
0 0 0 -1 -1 -2 -1 0 0 0 0 0 0 0 0 0 0 0 0 0 0 0 0 0 0 0 0 0 0 0 0 0 0 0 0 0 0 0 -249 -264 -208 -157 -137 -115 -47 -218 -153
-2 -1 -1 0 -3 -3 -2 -2 -1 0 0 0 0 0 0 0 0 0 0 0 0 0 0 0 0 0 0 0 0 0 0 0 0 0 0 0 0 0 -183 -140 -201 -216 -71 0 -149 -127 -293
-5 -1 -2 -2 -1 -1 -6 -1 -1 0 0 0 0 0 0 0 0 0 0 0 0 0 0 0 0 0 0 0 0 0 0 0 0 0 0 0 0 -196 -152 -121 -150 -107 0 0 0 -193 -131
0 0 0 -1 -1 -2 -10 -3 0 0 0 0 0 0 0 0 0 0 0 0 0 0 0 0 0 0 0 0 0 0 0 0 0 0 0 0 0 -206 -134 -116 -207 -76 0 0 0 0 0
0 0 0 -2 -2 -4 0 0 0 0 0 0 0 0 0 0 0 0 0 0 0 0 0 0 0 0 0 0 0 0 0 0 0 0 0 0 0 0 -207 -243 -189 -185 -127 0 0 0 0
0 0 0 -1 -2 -2 0 0 0 0 0 0 0 0 0 0 0 0 0 0 0 0 0 0 0 0 0 0 0 0 0 0 0 0 0 0 0 -78 -250 -217 -125 0 0 0 0 0 -21
0 0 -6 -2 0 0 0 0 0 0 0 0 0 0 0 0 0 0 0 0 0 0 0 0 0 0 0 0 0 0 0 0 0 0 0 0 0 0 0 -56 -14 0 0 -6 -12 0 0
0 0 -1 -3 0 0 0 0 0 0 0 0 0 0 0 0 0 0 0 0 0 0 0 0 0 0 0 0 0 0 0 0 0 0 0 0 0 0 0 0 0 0 0 0 0 0 -2
0 0 -6 -1 -6 -1 -1 0 -4 0 0 0 0 0 0 0 0 0 0 0 0 0 0 0 0 0 0 0 0 0 0 0 0 0 0 0 0 0 0 0 0 0 0 0 0 0 -55
0 0 -8 -5 0 0 -3 -6 0 0 0 0 0 0 0 0 0 0 0 0 0 0 0 0 0 0 0 0 0 0 0 0 0 0 0 0 0 0 0 0 0 0 0 0 0 0 -85
0 0 -14 -12 -3 -6 -4 -5 0 0 0 0 0 0 0 0 0 0 0 0 0 0 0 0 0 0 0 0 0 0 0 0 0 0 0 0 0 0 0 0 0 0 0 0 0 0 -11
0 -11 -10 -6 -6 -6 -6 0 0 0 0 0 0 0 0 0 0 0 0 0 0 0 0 0 0 0 0 0 0 0 0 0 0 0 0 0 0 0 0 0 0 0 0 0 0 0 0
-5 -5 -1 -5 -2 -7 -6 0 0 0 0 0 0 0 0 0 0 0 0 0 0 0 0 0 0 0 0 0 0 0 0 0 0 0 -250 0 0 0 0 0 0 0 0 0 0 0 0
-4 -2 -1 -1 -2 -6 0 0 0 0 0 0 0 0 0 0 0 0 0 0 0 0 0 0 0 0 0 0 0 0 0 0 0 0 0 0 0 0 0 0 0 0 0 0 0 0 -9
-4 -1 0 -6 -2 0 0 0 0 0 0 0 0 0 0 0 0 0 0 0 0 0 0 0 0 0 0 0 0 0 0 0 0 0 0 0 0 0 0 0 0 0 0 -135 -152 -4 0
-8 -4 -13 -2 0 0 0 0 -2 0 0 0 0 0 0 0 0 0 0 0 0 0 0 0 0 0 0 0 0 0 0 0 0 0 0 0 0 0 0 0 0 0 -249 -259 -203 -384 0
0 0 0 0 0 0 0 -1 -1 0 0 0 0 0 0 0 0 0 0 0 0 0 0 0 0 0 0 0 0 0 0 0 0 0 0 0 0 0 0 0 0 0 -207 0 -297 -398 -527
0 0 0 0 0 0 0 0 0 -1 0 0 0 0 0 0 0 0 0 0 0 0 0 0 0 0 0 0 0 0 -9 -29 -57 -508 0 0 0 0 0 0 0 -16 -284 -392 -38 -259 -523
0 0 0 0 0 0 0 0 0 -2 0 0 0 0 0 0 0 0 0 0 0 0 0 0 0 0 0 0 -62 0 -104 -268 -141 -272 0 0 0 -189 -357 -15 -84 -254 0 0 0 -159 -100
0 0 0 0 0 0 0 0 0 0 0 0 0 0 0 0 0 0 0 0 0 0 0 0 0 0 0 -117 -223 -164 -177 -292 -141 -189 -271 -264 -455 -164 -433 -208 -238 -237 -467 0 0 -96 0
0 0 0 0 0 0 0 0 0 0 0 0 0 0 0 0 0 0 0 0 0 0 0 0 0 0 -174 -195 -267 -318 -284 -305 -282 -411 -351 -310 -213 -264 -513 -222 -98 -481 -420 -171 -450 -349 0
0 0 0 0 0 0 0 0 0 0 0 0 0 0 0 0 0 0 0 0 0 0 0 0 0 0 -278 -38 0 -228 -243 -10 -244 -192 -478 -331 -396 -281 -357 -236 -510 -564 -497 -625 -669 -645 -607
Wind_Speed
9 10 12 12 11 15 16 17 17 17 18 20 20 19 17 16 18 19 20 21 21 20 18 16 14 13 4 3 9 5 10 12 8 5 2 1 1 1 3 7 4 10 6 6 9 9 7
10 12 13 15 11 14 15 17 17 17 18 17 15 17 18 18 19 20 21 22 20 20 18 15 11 10 2 3 3 3 8 6 5 4 4 5 2 3 3 3 3 2 10 7 8 11 7
10 10 10 11 11 15 16 15 17 19 17 18 18 19 19 20 20 21 22 22 21 20 17 12 7 3 1 13 3 6 4 0 4 5 5 3 3 4 3 3 11 5 8 5 6 4 2
11 11 12 13 13 16 16 16 17 18 18 18 19 20 20 21 21 22 23 23 23 21 14 8 4 2 8 4 1 1 4 3 5 5 3 3 4 3 1 1 5 6 5 2 3 3 4
10 11 11 12 13 16 17 18 18 18 18 18 19 20 21 22 22 23 25 26 24 10 4 8 3 1 10 3 2 5 6 5 2 1 4 3 2 0 6 4 4 5 3 3 3 7 2
10 10 11 15 15 14 15 19 20 19 19 21 21 21 22 23 23 23 27 24 7 2 3 4 3 3 5 3 4 2 3 4 2 2 5 7 6 4 5 6 5 6 3 5 5 5 4
9 10 11 14 16 17 19 20 21 20 22 22 23 22 22 23 24 22 14 3 5 4 1 6 5 4 5 8 5 2 4 6 1 6 2 4 7 0 5 5 4 5 2 3 6 3 5
9 10 12 14 15 15 16 20 21 21 21 22 24 24 23 25 24 19 0 4 1 4 9 9 8 6 4 4 4 5 3 5 5 3 2 7 2 6 6 6 6 5 4 6 6 5 3
9 11 13 16 14 15 17 17 20 22 20 21 24 24 23 28 28 2 2 5 2 4 2 9 6 5 5 8 7 7 8 4 5 3 2 5 4 3 5 3 5 2 4 2 3 3 2
10 13 14 14 14 17 16 21 20 19 19 22 23 20 20 30 2 5 6 4 7 4 6 8 3 8 5 6 4 7 7 6 1 7 6 4 3 8 4 3 4 2 6 4 5 4 6
10 11 11 16 15 17 15 17 18 18 20 22 22 19 15 7 6 3 6 9 8 4 2 1 3 1 3 10 2 1 3 5 7 4 6 7 1 3 1 7 5 9 2 2 4 4 5
11 12 12 15 15 15 16 17 18 19 22 24 23 17 13 2 2 9 10 10 3 8 5 4 5 6 5 2 2 1 4 5 4 4 1 6 1 6 7 4 2 4 6 9 6 5 2
11 12 12 16 15 15 16 17 17 20 23 23 24 20 6 3 6 2 7 5 6 4 5 5 2 1 3 4 3 4 3 3 6 4 4 6 2 3 4 1 3 6 6 4 4 4 7
11 11 13 15 18 14 15 17 17 22 22 24 25 25 4 7 4 4 3 7 2 3 6 4 3 3 5 5 4 3 6 3 1 4 3 6 8 6 3 9 9 4 8 8 5 4 4
13 12 13 14 16 13 15 16 16 19 22 24 24 3 3 5 9 1 7 3 8 6 3 7 5 3 2 3 3 3 7 7 8 10 9 7 8 4 5 4 7 4 6 7 9 4 3
13 13 12 16 12 13 14 15 15 19 22 24 4 4 5 4 9 5 6 5 5 4 4 3 4 0 3 4 5 5 5 5 7 13 7 7 3 5 5 4 4 7 4 2 3 5 3
13 14 13 12 11 14 13 14 15 18 23 19 2 4 3 4 2 7 4 7 6 6 2 2 3 3 2 3 6 4 7 6 6 6 9 8 5 9 2 4 8 3 2 4 5 5 7
13 13 12 10 11 11 12 11 13 16 21 7 3 2 3 0 5 2 3 6 4 5 2 6 3 7 2 2 3 4 6 7 8 10 11 9 7 7 13 4 1 5 8 8 7 6 0
12 13 10 9 10 9 10 10 12 12 10 3 2 3 4 4 3 1 4 5 5 4 5 4 4 4 1 4 1 5 3 6 5 8 11 9 2 3 11 8 4 3 4 4 3 5 8
11 10 10 9 8 9 8 10 12 12 5 1 1 3 4 4 1 4 2 6 5 4 6 5 6 3 2 2 1 3 3 3 5 3 4 11 5 9 11 11 5 3 3 5 6 4 5
10 10 8 8 6 5 8 10 12 13 12 4 1 1 3 2 2 3 1 3 4 5 3 4 3 4 4 1 3 1 3 6 4 9 4 5 9 6 7 2 4 6 4 4 7 5 7
8 8 6 5 3 5 7 9 12 14 3 1 1 2 4 2 3 4 2 2 3 6 1 3 6 6 10 6 2 3 5 6 3 7 6 4 3 6 3 3 2 4 3 2 4 3 7
7 5 4 1 4 5 7 11 11 14 5 2 3 2 3 3 4 2 1 5 5 5 4 4 2 3 7 4 4 2 0 4 4 3 4 4 4 2 3 3 5 4 5 4 2 2 4
13 10 6 6 6 6 8 9 10 11 8 1 3 1 3 3 1 2 4 5 4 5 2 5 3 3 3 7 0 3 6 4 8 8 2 2 3 3 2 4 0 6 4 1 4 2 7
14 13 11 8 7 7 8 8 9 9 9 2 2 2 2 2 3 6 5 4 7 4 2 2 4 1 4 1 4 5 5 5 6 3 8 5 5 5 4 3 3 4 6 6 3 4 3
14 12 11 10 8 8 9 10 10 9 12 1 2 2 2 3 5 1 3 2 2 4 6 3 4 5 4 3 4 4 3 2 4 10 5 5 6 6 3 3 6 5 6 3 3 5 5
11 11 10 10 8 8 9 10 12 13 12 3 3 1 2 2 5 3 4 2 1 2 1 3 7 9 3 3 4 3 4 2 3 1 4 5 5 4 3 3 6 5 8 4 3 8 5
11 10 11 11 8 8 8 9 11 14 16 6 4 2 2 2 6 6 4 3 2 2 2 4 4 4 4 4 3 4 3 5 3 3 4 5 5 3 1 4 6 2 4 8 4 5 6
10 11 11 11 11 9 9 10 11 13 15 12 2 3 2 3 7 4 8 11 10 5 4 3 3 3 4 4 1 3 2 2 4 2 1 2 6 4 7 5 3 3 5 2 4 4 2
Wind_Direction
352 350 355 355 2 3 1 359 358 355 354 352 348 342 331 329 323 320 319 321 320 319 317 317 317 321 328 346 253 286 84 117 127 134 193 153 357 42 329 332 31 115 104 83 104 88 97
5 9 6 4 10 2 359 359 358 356 352 342 331 326 325 322 320 319 316 316 311 311 312 312 311 315 334 306 260 341 113 114 129 154 175 178 169 251 295 293 94 60 107 100 70 75 69
356 1 1 13 3 359 356 351 354 350 338 331 327 326 323 322 321 317 314 310 310 310 307 302 293 285 60 237 43 112 109 298 173 158 207 183 125 34 321 67 90 86 87 56 11 58 116
6 7 12 8 357 357 354 351 345 336 327 325 324 323 322 322 320 317 312 312 311 305 294 267 222 219 248 259 69 265 143 312 234 221 241 126 162 244 211 130 64 94 50 90 243 110 271
11 5 6 2 358 354 349 346 343 335 329 325 324 322 321 321 319 316 314 313 308 304 164 144 130 169 270 293 240 232 153 205 218 184 275 267 160 242 34 111 51 2 196 257 302 166 180
4 2 358 2 359 349 345 344 339 335 332 332 326 324 322 321 320 318 318 304 277 339 154 196 257 3 293 334 298 182 192 166 300 33 10 47 47 49 23 77 194 239 142 239 222 190 162
355 353 352 353 352 349 347 344 340 334 331 330 328 325 323 322 323 322 333 12 18 6 153 205 204 246 280 295 336 246 156 120 140 47 84 9 55 238 230 174 213 135 143 336 321 133 149
347 345 341 342 343 340 338 342 338 334 326 327 329 327 325 324 324 326 260 51 235 134 304 234 237 262 271 86 314 301 117 131 110 213 67 21 287 216 200 153 112 64 7 300 281 138 173
338 340 337 338 332 336 337 335 336 331 323 326 328 325 327 326 322 21 282 237 10 315 189 295 199 213 196 140 199 257 142 127 126 164 137 155 238 187 257 229 119 178 179 244 248 24 72
334 337 334 330 329 333 329 335 334 324 321 327 324 324 332 329 17 327 284 284 308 208 51 278 252 261 147 141 276 211 177 132 88 182 173 215 259 197 228 281 118 266 180 184 280 126 249
320 319 324 336 330 327 326 325 324 322 321 324 318 323 330 324 294 302 287 323 313 61 4 211 215 52 155 146 223 247 174 71 161 183 103 239 136 198 214 230 174 251 32 42 252 148 52
311 312 315 325 326 322 322 319 320 318 325 320 313 320 330 112 237 247 316 307 53 44 257 328 158 163 126 149 212 106 101 62 151 178 77 230 161 144 215 239 191 354 16 28 35 79 2
309 310 310 322 322 321 319 319 320 321 324 314 312 310 301 243 235 338 320 34 49 143 315 350 275 64 92 153 204 130 118 75 157 134 277 341 223 234 180 131 40 78 57 336 351 16 221
306 307 304 320 322 318 319 320 322 326 320 315 314 311 208 211 253 327 56 52 168 240 264 311 355 109 176 155 209 121 103 206 153 103 143 182 300 175 209 189 198 179 151 164 204 214 259
303 304 304 317 319 318 322 321 320 323 320 320 317 330 264 251 188 24 77 90 212 212 304 334 332 93 331 355 160 131 176 196 212 171 185 162 255 248 201 186 127 204 194 219 98 21 56
301 301 305 317 316 321 322 320 323 328 324 326 318 346 268 116 158 79 78 236 243 228 342 357 44 317 136 233 148 137 193 214 221 187 167 225 292 225 255 172 232 165 174 21 24 146 167
303 303 305 307 310 318 321 320 334 333 329 327 358 4 296 173 122 51 152 233 269 258 279 312 230 271 238 88 154 172 216 260 231 203 160 143 136 262 47 184 219 62 258 50 122 132 151
298 298 296 303 301 311 319 331 338 337 334 33 350 23 325 37 63 51 165 204 268 275 146 259 250 211 163 162 236 218 209 217 205 152 165 199 160 242 217 234 220 168 226 173 146 241 166
291 291 302 301 296 316 324 345 335 337 16 333 13 272 319 60 122 264 284 279 236 249 267 228 256 215 190 170 48 212 253 263 10 181 177 180 223 286 323 350 7 212 199 153 119 91 189
293 293 293 288 303 315 348 346 330 326 325 138 56 36 330 61 165 127 3 283 297 231 254 209 243 140 191 136 224 290 295 294 357 28 291 111 138 164 221 213 171 244 204 164 114 117 179
300 297 287 290 298 344 3 343 330 326 330 168 110 340 185 280 311 322 162 292 286 331 277 352 67 18 194 311 28 271 270 318 360 358 59 108 184 175 224 204 199 218 231 151 177 204 166
303 298 287 294 3 15 11 348 335 341 31 4 88 32 354 293 311 339 120 288 297 315 290 19 64 40 66 87 136 278 353 34 36 331 23 356 231 163 147 177 165 275 296 117 206 154 287
329 301 288 19 51 28 10 0 352 356 5 17 311 321 107 287 342 45 265 304 309 320 358 85 346 75 42 23 262 340 79 105 100 57 332 39 118 79 226 12 55 354 330 323 325 2 140
15 28 50 62 54 28 12 354 352 10 36 231 261 81 73 276 298 252 312 303 310 324 227 302 13 58 29 356 16 58 65 63 55 40 47 107 75 59 171 45 100 241 294 104 126 75 303
7 20 28 36 40 25 10 359 356 360 1 294 282 118 113 274 254 289 319 294 312 329 55 334 10 278 341 66 59 47 344 8 340 4 13 35 115 73 118 144 269 10 351 348 6 289 313
4 8 7 10 18 18 9 0 359 4 356 338 257 183 119 113 249 358 306 311 312 322 354 3 327 319 13 98 85 123 187 178 321 332 42 19 64 104 86 115 198 234 281 272 243 335 335
1 2 3 356 357 0 3 359 8 6 358 331 279 241 142 198 270 194 218 238 288 14 267 317 334 349 30 50 86 147 194 173 182 249 311 359 2 106 137 144 279 239 278 297 123 244 334
353 356 356 353 351 360 3 8 11 5 2 6 277 281 80 237 270 223 227 212 341 112 141 278 47 340 30 64 142 188 147 211 148 204 194 187 138 201 108 113 246 137 301 143 183 324 310
344 353 351 351 2 7 15 15 6 4 3 2 311 333 340 190 249 246 231 234 211 210 118 342 199 180 192 93 324 108 134 124 180 216 111 257 182 196 177 230 248 134 194 211 161 191 317